Total_Precipitation_Accumulation
0.07 0.05 0.04 0.02 0.01 0.00 0.00 0.01 0.01 0.01 0.02 0.03 0.02 0.01 0.01 0.01 0.00 0.00 0.00 0.00 0.00 0.00 0.00 0.00 0.00 0.00 0.00 0.00 0.00 0.00 0.00 0.00 0.00 0.00 0.00 0.00 0.00 0.00 0.00 0.00 0.00 0.00 0.00 0.00 0.00 0.00 0.00
0.40 0.32 0.30 0.28 0.26 0.21 0.11 0.04 0.02 0.01 0.00 0.02 0.02 0.03 0.04 0.03 0.02 0.01 0.00 0.00 0.00 0.00 0.00 0.00 0.00 0.00 0.00 0.00 0.00 0.00 0.00 0.00 0.00 0.00 0.00 0.00 0.00 0.00 0.00 0.00 0.00 0.00 0.00 0.00 0.00 0.00 0.00
0.27 0.31 0.30 0.29 0.27 0.21 0.13 0.08 0.06 0.01 0.00 0.01 0.02 0.03 0.03 0.03 0.02 0.01 0.01 0.00 0.00 0.00 0.00 0.00 0.00 0.00 0.00 0.00 0.00 0.00 0.00 0.00 0.00 0.00 0.00 0.00 0.00 0.00 0.00 0.00 0.00 0.00 0.00 0.00 0.00 0.00 0.00
0.20 0.17 0.14 0.11 0.09 0.09 0.08 0.07 0.05 0.01 0.00 0.00 0.01 0.02 0.03 0.03 0.02 0.02 0.01 0.00 0.00 0.00 0.00 0.00 0.00 0.00 0.00 0.00 0.00 0.00 0.00 0.00 0.00 0.00 0.00 0.00 0.00 0.00 0.00 0.00 0.00 0.00 0.00 0.00 0.00 0.00 0.00
0.11 0.11 0.11 0.09 0.07 0.05 0.04 0.02 0.00 0.00 0.00 0.00 0.00 0.01 0.01 0.01 0.02 0.03 0.01 0.00 0.00 0.00 0.00 0.00 0.00 0.00 0.00 0.00 0.00 0.00 0.00 0.00 0.00 0.00 0.00 0.00 0.00 0.00 0.00 0.00 0.00 0.00 0.00 0.00 0.00 0.00 0.00
0.06 0.07 0.07 0.06 0.06 0.05 0.02 0.01 0.01 0.00 0.00 0.00 0.00 0.00 0.01 0.02 0.03 0.03 0.02 0.00 0.00 0.00 0.00 0.00 0.00 0.00 0.00 0.00 0.00 0.00 0.00 0.00 0.00 0.00 0.00 0.00 0.00 0.00 0.00 0.00 0.00 0.00 0.00 0.00 0.00 0.00 0.00
0.03 0.04 0.05 0.06 0.06 0.05 0.04 0.01 0.01 0.01 0.00 0.00 0.00 0.00 0.00 0.00 0.02 0.03 0.00 0.00 0.00 0.00 0.00 0.00 0.00 0.00 0.00 0.00 0.00 0.00 0.00 0.00 0.00 0.00 0.00 0.00 0.00 0.00 0.00 0.00 0.00 0.00 0.00 0.00 0.00 0.00 0.00
0.01 0.01 0.01 0.02 0.02 0.02 0.02 0.02 0.01 0.01 0.02 0.02 0.00 0.00 0.00 0.00 0.00 0.00 0.00 0.00 0.00 0.00 0.00 0.00 0.00 0.00 0.00 0.00 0.00 0.00 0.00 0.00 0.00 0.00 0.00 0.00 0.00 0.00 0.00 0.00 0.00 0.00 0.00 0.00 0.00 0.00 0.00
0.02 0.01 0.00 0.00 0.00 0.00 0.00 0.01 0.01 0.00 0.00 0.01 0.02 0.01 0.00 0.00 0.00 0.00 0.00 0.00 0.00 0.00 0.00 0.00 0.00 0.00 0.00 0.00 0.00 0.00 0.00 0.00 0.00 0.00 0.00 0.00 0.00 0.00 0.00 0.00 0.00 0.00 0.00 0.00 0.00 0.00 0.00
0.03 0.02 0.02 0.00 0.00 0.00 0.01 0.00 0.00 0.01 0.02 0.01 0.00 0.01 0.01 0.00 0.00 0.00 0.00 0.00 0.00 0.00 0.00 0.00 0.00 0.00 0.00 0.00 0.00 0.00 0.00 0.00 0.00 0.00 0.00 0.00 0.00 0.00 0.00 0.00 0.00 0.00 0.00 0.00 0.00 0.00 0.00
0.03 0.02 0.02 0.01 0.01 0.00 0.00 0.00 0.00 0.00 0.02 0.02 0.01 0.01 0.00 0.00 0.00 0.00 0.00 0.00 0.00 0.00 0.00 0.00 0.00 0.00 0.00 0.00 0.00 0.00 0.00 0.00 0.00 0.00 0.00 0.00 0.00 0.00 0.00 0.00 0.00 0.00 0.00 0.00 0.00 0.00 0.00
0.06 0.03 0.02 0.02 0.01 0.00 0.00 0.00 0.00 0.00 0.01 0.03 0.03 0.02 0.00 0.00 0.00 0.00 0.00 0.00 0.00 0.00 0.01 0.00 0.00 0.00 0.00 0.00 0.00 0.00 0.00 0.00 0.00 0.00 0.00 0.00 0.00 0.00 0.00 0.00 0.00 0.00 0.00 0.00 0.00 0.00 0.00
0.06 0.06 0.05 0.02 0.01 0.00 0.00 0.00 0.00 0.00 0.01 0.03 0.05 0.04 0.01 0.00 0.00 0.00 0.00 0.00 0.00 0.00 0.00 0.00 0.00 0.00 0.00 0.00 0.00 0.00 0.00 0.00 0.00 0.00 0.00 0.00 0.00 0.00 0.00 0.00 0.00 0.00 0.00 0.00 0.00 0.00 0.00
0.09 0.08 0.07 0.04 0.03 0.02 0.01 0.00 0.00 0.00 0.01 0.02 0.04 0.06 0.02 0.01 0.00 0.00 0.00 0.00 0.00 0.00 0.00 0.00 0.00 0.00 0.00 0.00 0.00 0.00 0.00 0.00 0.00 0.00 0.00 0.00 0.00 0.00 0.00 0.00 0.00 0.00 0.00 0.00 0.01 0.00 0.00
0.09 0.11 0.11 0.10 0.07 0.04 0.03 0.00 0.00 0.01 0.02 0.02 0.06 0.08 0.08 0.02 0.00 0.00 0.00 0.02 0.00 0.00 0.00 0.00 0.00 0.00 0.00 0.00 0.00 0.00 0.00 0.00 0.00 0.00 0.00 0.00 0.00 0.00 0.00 0.00 0.00 0.00 0.00 0.00 0.02 0.02 0.05
0.11 0.11 0.11 0.12 0.12 0.09 0.04 0.01 0.00 0.01 0.01 0.02 0.08 0.10 0.06 0.01 0.01 0.03 0.04 0.01 0.00 0.00 0.00 0.00 0.00 0.00 0.00 0.00 0.00 0.00 0.00 0.00 0.00 0.00 0.00 0.00 0.00 0.00 0.00 0.00 0.00 0.00 0.00 0.01 0.08 0.13 0.08
0.13 0.12 0.13 0.11 0.11 0.10 0.09 0.04 0.01 0.02 0.03 0.06 0.10 0.10 0.03 0.01 0.08 0.15 0.08 0.01 0.00 0.00 0.00 0.00 0.00 0.00 0.00 0.00 0.00 0.00 0.00 0.00 0.00 0.00 0.00 0.00 0.00 0.00 0.00 0.00 0.00 0.01 0.01 0.02 0.10 0.10 0.15
0.16 0.16 0.14 0.15 0.11 0.10 0.10 0.06 0.03 0.02 0.05 0.12 0.11 0.06 0.07 0.06 0.16 0.14 0.04 0.00 0.00 0.00 0.00 0.00 0.00 0.00 0.00 0.00 0.00 0.00 0.00 0.00 0.00 0.00 0.00 0.00 0.00 0.00 0.00 0.00 0.00 0.00 0.00 0.04 0.23 0.17 0.19
0.11 0.13 0.15 0.17 0.16 0.13 0.14 0.08 0.06 0.02 0.04 0.08 0.10 0.06 0.18 0.15 0.06 0.04 0.01 0.00 0.00 0.00 0.00 0.00 0.00 0.00 0.00 0.00 0.00 0.00 0.00 0.00 0.00 0.00 0.00 0.00 0.00 0.00 0.00 0.00 0.01 0.03 0.03 0.07 0.12 0.21 0.22
0.18 0.13 0.12 0.16 0.22 0.22 0.15 0.21 0.13 0.06 0.11 0.14 0.08 0.08 0.36 0.54 0.07 0.00 0.00 0.00 0.00 0.00 0.00 0.00 0.00 0.00 0.00 0.00 0.00 0.00 0.00 0.00 0.00 0.00 0.01 0.03 0.01 0.00 0.01 0.01 0.04 0.03 0.03 0.09 0.27 0.44 0.28
0.17 0.23 0.22 0.18 0.21 0.29 0.34 0.27 0.25 0.27 0.26 0.26 0.18 0.05 0.06 0.29 0.24 0.07 0.01 0.00 0.00 0.00 0.00 0.01 0.01 0.00 0.00 0.00 0.00 0.00 0.00 0.00 0.00 0.00 0.01 0.05 0.03 0.02 0.02 0.02 0.04 0.07 0.03 0.02 0.06 0.09 0.18
0.21 0.18 0.27 0.35 0.30 0.29 0.41 0.48 0.45 0.22 0.36 0.43 0.25 0.15 0.08 0.02 0.02 0.07 0.07 0.04 0.00 0.00 0.00 0.00 0.00 0.00 0.00 0.00 0.00 0.00 0.01 0.02 0.02 0.03 0.06 0.09 0.08 0.07 0.08 0.03 0.06 0.09 0.05 0.03 0.03 0.02 0.02
0.40 0.23 0.16 0.31 0.49 0.40 0.39 0.51 0.54 0.50 0.49 0.66 0.48 0.27 0.21 0.22 0.16 0.22 0.15 0.03 0.00 0.01 0.02 0.00 0.00 0.00 0.02 0.01 0.00 0.00 0.00 0.00 0.01 0.02 0.07 0.09 0.11 0.13 0.10 0.02 0.10 0.10 0.00 0.00 0.00 0.00 0.00
0.46 0.45 0.24 0.16 0.36 0.56 0.50 0.46 0.51 0.51 0.52 0.31 0.31 0.32 0.37 0.32 0.16 0.11 0.06 0.03 0.03 0.01 0.02 0.01 0.02 0.04 0.01 0.01 0.04 0.02 0.01 0.02 0.03 0.03 0.02 0.05 0.12 0.25 0.19 0.15 0.17 0.01 0.00 0.00 0.00 0.00 0.01
0.47 0.49 0.48 0.29 0.19 0.45 0.58 0.51 0.46 0.49 0.48 0.30 0.25 0.23 0.30 0.24 0.11 0.10 0.11 0.10 0.08 0.05 0.07 0.06 0.04 0.01 0.05 0.22 0.30 0.21 0.12 0.07 0.02 0.03 0.03 0.04 0.15 0.29 0.26 0.15 0.04 0.00 0.00 0.00 0.02 0.03 0.01
0.39 0.52 0.48 0.47 0.29 0.25 0.51 0.56 0.47 0.43 0.41 0.36 0.27 0.24 0.31 0.30 0.10 0.02 0.04 0.06 0.12 0.13 0.14 0.06 0.01 0.01 0.15 0.35 0.27 0.20 0.09 0.08 0.04 0.04 0.08 0.10 0.16 0.30 0.26 0.23 0.07 0.02 0.05 0.00 0.01 0.03 0.00
0.31 0.41 0.51 0.44 0.36 0.27 0.39 0.43 0.52 0.45 0.42 0.35 0.26 0.27 0.42 0.36 0.07 0.03 0.06 0.07 0.08 0.14 0.17 0.04 0.04 0.11 0.22 0.39 0.35 0.11 0.05 0.02 0.04 0.06 0.08 0.14 0.33 0.41 0.22 0.27 0.06 0.00 0.02 0.02 0.04 0.06 0.00
0.22 0.27 0.42 0.47 0.36 0.30 0.34 0.41 0.41 0.46 0.49 0.41 0.26 0.24 0.41 0.37 0.07 0.04 0.03 0.06 0.09 0.15 0.22 0.17 0.26 0.25 0.35 0.43 0.26 0.14 0.06 0.06 0.06 0.04 0.12 0.17 0.29 0.26 0.22 0.28 0.09 0.00 0.04 0.07 0.05 0.00 0.00
0.26 0.22 0.25 0.39 0.34 0.30 0.29 0.43 0.45 0.40 0.45 0.39 0.32 0.25 0.39 0.54 0.17 0.05 0.02 0.02 0.02 0.05 0.17 0.23 0.20 0.16 0.20 0.20 0.19 0.19 0.17 0.14 0.12 0.13 0.08 0.14 0.11 0.11 0.09 0.10 0.08 0.03 0.05 0.05 0.02 0.00 0.00